Simultaneous Nadir Overpasses (SNOs) Predictions

Prediction of SNOs between AURA and LANDSAT-8 Satellite Orbit:

Table of predicted SNOs for the next 14.0 days since TLE Epoch: 11/8/2025
Index Date (AURA) Time (AURA) Lat,Lon (AURA) SZA (AURA ) Date (LANDSAT-8) Time (LANDSAT-8) Lat,Lon (LANDSAT-8) SZA (LANDSAT-8 ) Distance(km) Time Diff (sec)
1 11/12/2025 10:16:26 -73.62,-149.01 88.47 11/12/2025 10:15:20 -73.62,-151.46 88.57 76.90 66
2 11/12/2025 11:05:50 73.83, 18.17 91.74 11/12/2025 11:04:41 73.85, 16.67 91.69 46.51 69
3 11/12/2025 11:55:15 -74.19,-174.96 87.94 11/12/2025 11:54:02 -74.19,-174.91 87.94 1.67 73
4 11/12/2025 12:44:35 74.20, -7.32 92.09 11/12/2025 12:43:27 74.21, -7.22 92.10 3.32 68
5 11/12/2025 13:33:53 -74.19, 160.38 87.92 11/12/2025 13:32:55 -74.19, 160.37 87.92 0.66 58
6 11/12/2025 14:23:13 74.20, -31.98 92.11 11/12/2025 14:22:20 74.21, -31.94 92.12 1.89 53
7 11/12/2025 15:12:31 -74.19, 135.72 87.90 11/12/2025 15:11:48 -74.19, 135.66 87.90 1.98 43
8 11/12/2025 16:01:51 74.20, -56.64 92.13 11/12/2025 16:01:13 74.21, -56.66 92.14 1.38 38
9 11/12/2025 16:51:09 -74.19, 111.06 87.88 11/12/2025 16:50:41 -74.20, 110.94 87.88 3.63 28
10 11/12/2025 17:40:29 74.20, -81.30 92.15 11/12/2025 17:40:06 74.21, -81.37 92.16 2.46 23
11 11/12/2025 18:29:48 -74.24, 86.27 87.81 11/12/2025 18:29:33 -74.25, 86.34 87.80 2.11 15
12 11/12/2025 19:19:08 74.26,-106.09 92.22 11/12/2025 19:18:58 74.27,-105.97 92.23 3.77 10
13 11/12/2025 20:08:26 -74.25, 61.61 87.79 11/12/2025 20:08:26 -74.25, 61.62 87.78 0.66 0
14 11/12/2025 20:57:46 74.26,-130.75 92.24 11/12/2025 20:57:51 74.27,-130.69 92.25 2.22 5
15 11/12/2025 21:47:04 -74.25, 36.95 87.77 11/12/2025 21:47:19 -74.25, 36.91 87.76 1.46 15
16 11/12/2025 22:36:24 74.26,-155.41 92.26 11/12/2025 22:36:44 74.27,-155.40 92.27 1.16 20
17 11/12/2025 23:25:42 -74.25, 12.29 87.75 11/12/2025 23:26:12 -74.25, 12.19 87.74 3.09 30
18 11/13/2025 00:15:02 74.26, 179.93 92.28 11/13/2025 00:15:37 74.27, 179.88 92.29 1.86 35
19 11/13/2025 01:04:21 -74.30, -12.49 87.68 11/13/2025 01:05:04 -74.31, -12.41 87.67 2.63 43
20 11/13/2025 01:53:40 74.26, 155.27 92.30 11/13/2025 01:54:30 74.27, 155.16 92.31 3.35 50
21 11/13/2025 02:42:59 -74.30, -37.15 87.66 11/13/2025 02:43:57 -74.31, -37.12 87.65 0.99 58
22 11/13/2025 03:32:19 74.32, 130.48 92.36 11/13/2025 03:33:22 74.33, 130.56 92.39 2.66 63
23 11/13/2025 04:21:38 -74.36, -61.94 87.60 11/13/2025 04:22:50 -74.31, -61.84 87.63 6.13 72
24 11/13/2025 05:11:02 74.58, 105.19 92.62 11/13/2025 05:12:11 74.53, 106.34 92.63 34.36 69
25 11/13/2025 06:00:27 -74.92, -88.01 87.06 11/13/2025 06:01:32 -74.87, -85.18 87.00 82.15 65



Historial Predications of SNOs between AURA and LANDSAT-8
